Voltar ao catálogo

COSMOS 1275 DEB

AtivoPO
NORAD 13017·DEBRIS·🇷🇺 Russia

Lançado Jun 4, 1981 de Plesetsk Cosmodrome

Loading…

Próximas Passagens (próximas 24 horas)

TLE

AtualizadoSource: Space-Track

Época: Sep 14, 2026, 09:37 UTC

1 13017U 81053EP  26257.40117698  .00000801  00000-0  52276-3 0  9991
2 13017  82.9283 225.2372 0029817 321.7870 198.6290 14.01020699269435

Acompanhe COSMOS 1275 DEB em tempo real com AllMySat

Download on the App Store